Location: Wald
(31.7579°N, 86.6655°W)
Time: 21:17:34
(UTC+00:00)

Mugunghwa Rocket - Pass Details

Date: 14 July 2020
Orbit: 936 x 1372 km, 26.7° (Epoch: 13 August)

Event Time Altitude Azimuth Distance (km) Brightness Sun altitude
Rises 03:19:56 0° 254° (WSW) 3,610 7.3 -25.3°
Reaches altitude 10° 03:22:32 10° 249° (WSW) 2,694 6.5 -25.7°
Enters shadow 03:28:23 54° 189° (S) 1,219 4.2 -26.4°
